NOAA 16 DEB, 41067

Orbit data source: Space-Track

NOAA 16 DEB, 41067 is space debris in SSO originally from a launch on Thu, 21 Sep 2000 UTC launched from the Air Force Western Test Range (AFWTR). Debris objects in space refer to the collection of defunct objects orbiting the Earth. Examples of debris include non-operational satellites, rocket bodies, and fragments generated from explosions, collisions, or faulty payload assembly.

Loading next visibility...
Identifier
41067, 2000-055AA
Orbit
SSO
Country
Flag of USUS
Related business
Manufacturer
Unknown
Mission
Spacecraft
Bus & Motor
Unknown
Mass
Unknown
Launch date (UTC)
2000-09-21 (25 years ago)
Launch vehicle
Unknown
Launch site
Air Force Western Test Range (AFWTR)
Object type
Payload
Rocket body
Debris
Shape & HBR
Unknown
Radar Cross Section
Small (<0.1 m²)

Expand to show TLE details & history
Last TLE update: 15 hours ago

TLE from 15 hours ago
0 NOAA 16 DEB
1 41067U 00055AA  25260.01736190  .00000834  00000-0  43342-3 0  9994
2 41067  98.5536 299.1226 0003706   6.7598 353.3627 14.17305162506109
Epoch: 2025-09-17T00:25Z
TLE epoch observation values (Epoch: 2025-09-17T00:25:00.068Z)
Latitude
0.00001°
Longitude
-63.32703°
Altitude
834.741 km
Speed
7.437 km/s
True Right ascension
19h 56m 29s
True Declination
0° 00' 00"
Sunlit
Object was in full shadow at epoch
Visualization orbit readout
Latitude
Unknown
Longitude
Unknown
Altitude
Unknown
Speed
Unknown
Apparent Right ascension
Unknown
Apparent Declination
Unknown
Sunlit
N/A
Visualization observer readout
Local Sidereal Time
07:45:15
Azimuth
Unknown
Elevation
Unknown
Doppler factor
Unknown
Orbital elements
Apogee altitude
834.308 km
Perigee altitude
828.964 km
Semi-major axis
7,209.773 km
Eccentricity
0.00037
Inclination
98.5536°
RAAN
299.1226°
Arg. of periapsis
6.7598°
True anomaly
353.35779°
Mean anomaly
353.3627°
Eccentric anomaly
353.36024°
Mean motion
3.54536 °/min
Orbital period
101.54 mins
BSTAR
0.00043342
Loading maneuver chart data...
Computing Atmospheric mass density...
Loading historical data...
Loading historical data...
Loading historical data...
Loading historical data...
Loading historical data...
Loading historical data...
Loading historical data...

Documentation

Showing up to 5 results
|